When you browse on this site, cookies collect data to enhance your experience and personalize the content and advertising you see.
Visit our Privacy Policy to learn more. By continuing to use the site, you agree to this use of cookies and data.
  • In Schweiz
  • Länderverzeichnis
  • Für 7 Tage
  • Wassertemperatur
  • Satellitenkarten
  • Wetterkarte
  • Widgets
  • user-avatar
    Anmelden

    Stündliche Wetter Tomashivka

    Heute, 19 April, Freitag

    Zeit Temperatur Niederschläge Wind Luftdruck Luftfeuchtigkeit
    00:00 +8°C° 0.3 mm 2 m/S 753 mmHg 75%
    01:00 +7°C° 0.3 mm 2 m/S 752 mmHg 79%
    02:00 +7°C° 0.3 mm 2 m/S 752 mmHg 84%
    03:00 +6°C° 0 mm 2 m/S 752 mmHg 84%
    04:00 +5°C° 0 mm 3 m/S 752 mmHg 85%
    05:00 +5°C° 0 mm 4 m/S 753 mmHg 86%
    06:00 +5°C° 0 mm 4 m/S 753 mmHg 82%
    07:00 +6°C° 0 mm 5 m/S 753 mmHg 79%
    08:00 +7°C° 0 mm 5 m/S 754 mmHg 75%
    09:00 +8°C° 0.1 mm 5 m/S 754 mmHg 70%
    10:00 +9°C° 0.1 mm 5 m/S 754 mmHg 65%
    11:00 +11°C° 0.1 mm 6 m/S 755 mmHg 61%
    12:00 +12°C° 0.3 mm 5 m/S 755 mmHg 56%
    13:00 +12°C° 0.3 mm 5 m/S 755 mmHg 51%
    14:00 +13°C° 0.3 mm 4 m/S 755 mmHg 46%
    15:00 +13°C° 0 mm 4 m/S 755 mmHg 47%
    16:00 +12°C° 0 mm 3 m/S 755 mmHg 47%
    17:00 +12°C° 0 mm 3 m/S 756 mmHg 47%
    18:00 +12°C° 0 mm 2 m/S 756 mmHg 52%
    19:00 +9°C° 0 mm 2 m/S 756 mmHg 57%
    20:00 +9°C° 0 mm 1 m/S 756 mmHg 62%
    21:00 +9°C° 0 mm 1 m/S 757 mmHg 63%
    22:00 +8°C° 0 mm 1 m/S 757 mmHg 64%
    23:00 +7°C° 0 mm 0 m/S 757 mmHg 64%

    Morgen, 20 April, Samstag

    Zeit Temperatur Niederschläge Wind Luftdruck Luftfeuchtigkeit
    00:00 +8°C° 0 mm 1 m/S 757 mmHg 65%
    01:00 +8°C° 0 mm 1 m/S 757 mmHg 66%
    02:00 +8°C° 0 mm 1 m/S 757 mmHg 66%
    03:00 +8°C° 0 mm 1 m/S 756 mmHg 68%
    04:00 +8°C° 0 mm 1 m/S 756 mmHg 69%
    05:00 +8°C° 0 mm 1 m/S 756 mmHg 71%
    06:00 +9°C° 0 mm 1 m/S 756 mmHg 67%
    07:00 +9°C° 0 mm 2 m/S 756 mmHg 63%
    08:00 +10°C° 0 mm 2 m/S 756 mmHg 59%
    09:00 +12°C° 0 mm 2 m/S 756 mmHg 52%
    10:00 +12°C° 0 mm 2 m/S 756 mmHg 46%
    11:00 +13°C° 0 mm 2 m/S 755 mmHg 40%
    12:00 +13°C° 0 mm 2 m/S 755 mmHg 39%
    13:00 +13°C° 0 mm 2 m/S 755 mmHg 39%
    14:00 +14°C° 0 mm 1 m/S 754 mmHg 39%
    15:00 +14°C° 0 mm 1 m/S 754 mmHg 40%
    16:00 +13°C° 0 mm 1 m/S 754 mmHg 41%
    17:00 +12°C° 0 mm 0 m/S 753 mmHg 42%
    18:00 +11°C° 0 mm 0 m/S 753 mmHg 45%
    19:00 +11°C° 0 mm 1 m/S 754 mmHg 49%
    20:00 +10°C° 0 mm 1 m/S 754 mmHg 52%
    21:00 +10°C° 0 mm 1 m/S 753 mmHg 54%
    22:00 +10°C° 0 mm 1 m/S 753 mmHg 57%
    23:00 +8°C° 0 mm 2 m/S 753 mmHg 59%

    übermorgen, 21 April, Sonntag

    Zeit Temperatur Niederschläge Wind Luftdruck Luftfeuchtigkeit
    00:00 +8°C° 0 mm 2 m/S 753 mmHg 62%
    01:00 +7°C° 0 mm 2 m/S 753 mmHg 65%
    02:00 +7°C° 0 mm 2 m/S 753 mmHg 67%
    03:00 +6°C° 0 mm 2 m/S 752 mmHg 70%
    04:00 +6°C° 0 mm 2 m/S 752 mmHg 72%
    05:00 +6°C° 0 mm 2 m/S 752 mmHg 74%
    06:00 +7°C° 0 mm 2 m/S 752 mmHg 70%
    07:00 +8°C° 0 mm 2 m/S 752 mmHg 66%
    08:00 +10°C° 0 mm 2 m/S 753 mmHg 62%
    09:00 +11°C° 0.1 mm 3 m/S 753 mmHg 57%
    10:00 +12°C° 0.1 mm 4 m/S 753 mmHg 52%
    11:00 +13°C° 0.1 mm 4 m/S 753 mmHg 47%
    12:00 +13°C° 0.2 mm 5 m/S 753 mmHg 47%
    13:00 +13°C° 0.2 mm 5 m/S 753 mmHg 48%
    14:00 +13°C° 0.2 mm 5 m/S 753 mmHg 48%
    15:00 +13°C° 0.1 mm 5 m/S 753 mmHg 49%
    16:00 +13°C° 0.1 mm 5 m/S 753 mmHg 50%
    17:00 +12°C° 0.1 mm 5 m/S 753 mmHg 51%
    18:00 +11°C° 0 mm 4 m/S 753 mmHg 54%
    19:00 +10°C° 0 mm 4 m/S 753 mmHg 58%
    20:00 +8°C° 0 mm 4 m/S 753 mmHg 61%
    21:00 +7°C° 0 mm 4 m/S 754 mmHg 61%
    22:00 +7°C° 0 mm 4 m/S 754 mmHg 62%
    23:00 +6°C° 0 mm 4 m/S 754 mmHg 63%

    22 April, Montag

    Zeit Temperatur Niederschläge Wind Luftdruck Luftfeuchtigkeit
    00:00 +5°C° 0 mm 4 m/S 754 mmHg 64%
    01:00 +5°C° 0 mm 3 m/S 754 mmHg 65%
    02:00 +4°C° 0 mm 3 m/S 754 mmHg 65%
    03:00 +4°C° 0 mm 3 m/S 755 mmHg 66%
    04:00 +4°C° 0 mm 3 m/S 755 mmHg 67%
    05:00 +3°C° 0 mm 3 m/S 755 mmHg 68%
    06:00 +5°C° 0 mm 3 m/S 756 mmHg 64%
    07:00 +8°C° 0 mm 3 m/S 756 mmHg 59%
    08:00 +10°C° 0 mm 3 m/S 756 mmHg 55%
    09:00 +11°C° 0 mm 4 m/S 757 mmHg 50%
    10:00 +12°C° 0 mm 4 m/S 757 mmHg 45%
    11:00 +13°C° 0 mm 4 m/S 757 mmHg 40%
    12:00 +13°C° 0 mm 4 m/S 757 mmHg 41%
    13:00 +13°C° 0 mm 4 m/S 757 mmHg 41%
    14:00 +13°C° 0 mm 4 m/S 757 mmHg 41%
    15:00 +13°C° 0 mm 4 m/S 757 mmHg 42%
    16:00 +13°C° 0 mm 4 m/S 757 mmHg 43%
    17:00 +13°C° 0 mm 3 m/S 757 mmHg 45%
    18:00 +12°C° 0 mm 3 m/S 757 mmHg 47%
    19:00 +11°C° 0 mm 3 m/S 757 mmHg 50%
    20:00 +10°C° 0 mm 3 m/S 758 mmHg 53%
    21:00 +10°C° 0 mm 3 m/S 758 mmHg 53%
    22:00 +10°C° 0 mm 3 m/S 758 mmHg 54%
    23:00 +9°C° 0 mm 3 m/S 758 mmHg 54%

    23 April, Dienstag

    Zeit Temperatur Niederschläge Wind Luftdruck Luftfeuchtigkeit
    00:00 +9°C° 0 mm 3 m/S 758 mmHg 55%
    01:00 +9°C° 0 mm 2 m/S 758 mmHg 56%
    02:00 +8°C° 0 mm 2 m/S 758 mmHg 56%
    03:00 +8°C° 0 mm 2 m/S 758 mmHg 57%
    04:00 +8°C° 0 mm 2 m/S 759 mmHg 58%
    05:00 +8°C° 0 mm 2 m/S 759 mmHg 59%
    06:00 +9°C° 0 mm 3 m/S 759 mmHg 56%
    07:00 +10°C° 0 mm 3 m/S 759 mmHg 54%
    08:00 +11°C° 0 mm 4 m/S 759 mmHg 51%
    09:00 +12°C° 0 mm 4 m/S 760 mmHg 47%
    10:00 +13°C° 0 mm 5 m/S 760 mmHg 44%
    11:00 +14°C° 0 mm 5 m/S 760 mmHg 40%
    12:00 +15°C° 0 mm 5 m/S 759 mmHg 40%
    13:00 +15°C° 0 mm 5 m/S 759 mmHg 39%
    14:00 +15°C° 0 mm 5 m/S 759 mmHg 39%
    15:00 +15°C° 0 mm 5 m/S 758 mmHg 41%
    16:00 +15°C° 0 mm 5 m/S 758 mmHg 42%
    17:00 +15°C° 0 mm 5 m/S 758 mmHg 44%
    18:00 +13°C° 0 mm 5 m/S 758 mmHg 50%
    19:00 +12°C° 0 mm 4 m/S 758 mmHg 55%
    20:00 +10°C° 0 mm 4 m/S 758 mmHg 61%
    21:00 +8°C° 0 mm 4 m/S 758 mmHg 62%
    22:00 +8°C° 0 mm 4 m/S 758 mmHg 63%
    23:00 +7°C° 0 mm 4 m/S 759 mmHg 64%

    24 April, Mittwoch

    Zeit Temperatur Niederschläge Wind Luftdruck Luftfeuchtigkeit
    00:00 +8°C° 0 mm 3 m/S 759 mmHg 65%
    01:00 +7°C° 0 mm 3 m/S 759 mmHg 66%
    02:00 +7°C° 0 mm 3 m/S 759 mmHg 66%
    03:00 +7°C° 0 mm 3 m/S 759 mmHg 68%
    04:00 +5°C° 0 mm 3 m/S 759 mmHg 70%
    05:00 +5°C° 0 mm 3 m/S 759 mmHg 72%
    06:00 +8°C° 0 mm 3 m/S 759 mmHg 67%
    07:00 +10°C° 0 mm 4 m/S 759 mmHg 62%
    08:00 +11°C° 0 mm 4 m/S 759 mmHg 57%
    09:00 +13°C° 0 mm 4 m/S 759 mmHg 53%
    10:00 +14°C° 0 mm 5 m/S 759 mmHg 49%
    11:00 +15°C° 0 mm 5 m/S 759 mmHg 45%
    12:00 +15°C° 0 mm 5 m/S 759 mmHg 46%
    13:00 +16°C° 0 mm 5 m/S 758 mmHg 46%
    14:00 +16°C° 0 mm 5 m/S 758 mmHg 46%
    15:00 +16°C° 0 mm 5 m/S 758 mmHg 47%
    16:00 +16°C° 0 mm 5 m/S 757 mmHg 48%
    17:00 +15°C° 0 mm 4 m/S 757 mmHg 49%
    18:00 +14°C° 0 mm 4 m/S 757 mmHg 55%
    19:00 +12°C° 0 mm 4 m/S 757 mmHg 61%
    20:00 +11°C° 0 mm 3 m/S 757 mmHg 67%
    21:00 +10°C° 0 mm 3 m/S 757 mmHg 68%
    22:00 +10°C° 0 mm 3 m/S 758 mmHg 68%
    23:00 +9°C° 0 mm 2 m/S 758 mmHg 69%
    Mehr zeigen